Regional Weather Roundup
Issued by NWS State College, PA

Home | Current Version | Previous Version | Graphics & Text | Print | Product List | Glossary On
Versions: 1 2 3 4 5 6 7 8 9 10 11 12 13 14 15 16 17 18 19 20 21 22 23 24 25 26 27 28 29 30 31 32 33 34 35 36 37 38 39 40 41 42 43 44 45 46 47 48 49 50
000
ASUS41 KCTP 192010
RWRCTP

REGIONAL WEATHER ROUNDUP
NATIONAL WEATHER SERVICE STATE COLLEGE PA
300 PM EST FRI DEC 19 2014

Note: "fair" indicates few or no clouds below 12,000 feet with no
significant weather and/or obstructions to visibility.

* = STATION THAT DOES NOT REPORT PRECIPITATION /E.G. RAIN...SNOW...ETC/
    THUNDER OR FOG.

PAZ002>004-007>009-013>016-020>023-029>032-192100-
WESTERN PENNSYLVANIA

CITY           SKY/WX    TMP DP  RH WIND       PRES   REMARKS
ERIE           CLOUDY    29  19  66 W7        30.22R
MEADVILLE      MOSUNNY   29  20  69 W10       30.17R
FRANKLIN*      PTSUNNY   28  19  69 CALM      30.17R
NEW CASTLE       N/A     31  23  72 NW3       30.22R
BEAVER COUNTY  CLOUDY    30  25  80 NW6       30.20R
BUTLER*        CLOUDY    30  21  69 CALM      30.20R
PITTSBURGH INT CLOUDY    31  23  72 NW9       30.20R
PITTSBURGH     CLOUDY    31  22  69 NW7       30.19R
INDIANA*       CLOUDY    30  21  69 NW10G17   30.20R
LATROBE        CLOUDY    30  27  86 W12       30.21R
WASHINGTON CO* NOT AVBL
$$

PAZ004>006-010>012-017>019-024>028-033>037-041-042-045-046-049>053-192100-
CENTRAL PENNSYLVANIA

CITY           SKY/WX    TMP DP  RH WIND       PRES   REMARKS
BRADFORD       CLOUDY    24  19  81 W7        30.09R
DUBOIS         PTSUNNY   27  20  75 NW9       30.11R
CLEARFIELD     PTSUNNY   30  20  66 NW13      30.12R
JOHNSTOWN      CLOUDY    25  20  81 W15       30.09R WCI  13
ALTOONA        PTSUNNY   31  21  66 NW15      30.12R
STATE COLLEGE  PTSUNNY   32  19  59 NW7       30.12R
WILLIAMSPORT   CLOUDY    35  20  54 NW10      30.12R
SELINSGROVE    MOSUNNY   39  22  50 N13       30.12S
FT INDIANTOWN  SUNNY     39  20  48 NW8G18    30.09S
CAPITAL CITY   MOSUNNY   40  21  46 NW12G23   30.11R
HARRISBURG     MOSUNNY   39  21  48 NW12      30.10R
YORK           SUNNY     40  23  50 NW10      30.10R
$$

PAZ038>040-043-044-047-048-054-055-060>062-067>071-192100-
EASTERN PENNSYLVANIA

CITY           SKY/WX    TMP DP  RH WIND       PRES   REMARKS
SCRANTON       CLOUDY    30  19  63 NW15G23   30.10R
MOUNT POCONO   CLOUDY    26  18  71 NW13      30.00R WCI  15
ALLENTOWN      MOSUNNY   38  21  50 N13G18    30.09R
QUAKERTOWN*    CLEAR     37  23  56 N9        30.07S
READING        MOSUNNY   40  21  46 NW10      30.08S
LANCASTER      SUNNY     39  22  50 NW13      30.08S
COATESVILLE    PTCLDY    39  25  56 NW12      30.07F
POTTSTOWN      MOSUNNY   39  22  50 NW13G20   30.09S
BLUE BELL      SUNNY     41  25  52 W7        30.06S
DOYLESTOWN     SUNNY     38  23  55 NW12      30.06R
WILLOW GROVE   NOT AVBL
NORTH PHILA    SUNNY     42  20  41 NW14      30.09R
PHILADELPHIA   MOSUNNY   42  22  44 NW15      30.09R
$$


USA.gov is the U.S. government's official web portal to all federal, state and local government web resources and services.